• In Kazakhstan
  • List of Countries
  • For 7 days
  • Water Temperature
  • Weather Map
  • News
  • Weather Widgets
  • user-avatar
    Login

    Hourly Weather Kalgoorlie

    Today, 25 August, Sunday

    Time Temperature Precipitation Wind Pressure Humidity
    00:00 +9°C° 0 mm 5 mps 737 mmHg 66%
    01:00 +8°C° 0 mm 5 mps 736 mmHg 72%
    02:00 +7°C° 0 mm 5 mps 736 mmHg 79%
    03:00 +7°C° 0 mm 5 mps 736 mmHg 83%
    04:00 +7°C° 0 mm 5 mps 736 mmHg 86%
    05:00 +5°C° 0 mm 6 mps 736 mmHg 90%
    06:00 +7°C° 0 mm 6 mps 736 mmHg 86%
    07:00 +7°C° 0 mm 6 mps 737 mmHg 82%
    08:00 +8°C° 0 mm 7 mps 737 mmHg 76%
    09:00 +10°C° 0 mm 7 mps 737 mmHg 67%
    10:00 +11°C° 0 mm 6 mps 737 mmHg 59%
    11:00 +14°C° 0 mm 6 mps 737 mmHg 50%
    12:00 +15°C° 0 mm 6 mps 736 mmHg 46%
    13:00 +15°C° 0 mm 5 mps 735 mmHg 42%
    14:00 +16°C° 0 mm 5 mps 734 mmHg 39%
    15:00 +16°C° 0 mm 5 mps 735 mmHg 39%
    16:00 +16°C° 0 mm 5 mps 735 mmHg 39%
    17:00 +15°C° 0 mm 5 mps 735 mmHg 40%
    18:00 +15°C° 0 mm 5 mps 735 mmHg 41%
    19:00 +15°C° 0 mm 5 mps 736 mmHg 42%
    20:00 +14°C° 0 mm 5 mps 736 mmHg 43%
    21:00 +13°C° 0 mm 5 mps 736 mmHg 45%
    22:00 +12°C° 0 mm 5 mps 736 mmHg 47%
    23:00 +10°C° 0 mm 5 mps 736 mmHg 50%

    Tomorrow, 26 August, Monday

    Time Temperature Precipitation Wind Pressure Humidity
    00:00 +10°C° 0 mm 5 mps 736 mmHg 53%
    01:00 +9°C° 0 mm 5 mps 736 mmHg 57%
    02:00 +8°C° 0 mm 5 mps 735 mmHg 60%
    03:00 +8°C° 0 mm 5 mps 736 mmHg 64%
    04:00 +7°C° 0 mm 5 mps 736 mmHg 67%
    05:00 +7°C° 0 mm 4 mps 736 mmHg 71%
    06:00 +8°C° 0 mm 5 mps 736 mmHg 67%
    07:00 +8°C° 0 mm 5 mps 737 mmHg 64%
    08:00 +9°C° 0 mm 6 mps 737 mmHg 60%
    09:00 +11°C° 0 mm 6 mps 737 mmHg 54%
    10:00 +13°C° 0 mm 6 mps 737 mmHg 48%
    11:00 +15°C° 0 mm 6 mps 737 mmHg 42%
    12:00 +15°C° 0 mm 5 mps 736 mmHg 39%
    13:00 +16°C° 0 mm 5 mps 736 mmHg 35%
    14:00 +17°C° 0 mm 5 mps 735 mmHg 32%
    15:00 +16°C° 0 mm 5 mps 735 mmHg 32%
    16:00 +16°C° 0 mm 5 mps 735 mmHg 32%
    17:00 +16°C° 0 mm 5 mps 735 mmHg 33%
    18:00 +15°C° 0 mm 4 mps 736 mmHg 36%
    19:00 +13°C° 0 mm 4 mps 736 mmHg 39%
    20:00 +12°C° 0 mm 4 mps 736 mmHg 42%
    21:00 +12°C° 0 mm 4 mps 736 mmHg 44%
    22:00 +11°C° 0 mm 4 mps 736 mmHg 46%
    23:00 +11°C° 0 mm 4 mps 736 mmHg 48%

    Day after tomorrow, 27 August, Tuesday

    Time Temperature Precipitation Wind Pressure Humidity
    00:00 +10°C° 0 mm 4 mps 736 mmHg 49%
    01:00 +10°C° 0 mm 4 mps 736 mmHg 50%
    02:00 +8°C° 0 mm 4 mps 736 mmHg 51%
    03:00 +8°C° 0 mm 4 mps 736 mmHg 52%
    04:00 +7°C° 0 mm 4 mps 736 mmHg 54%
    05:00 +7°C° 0 mm 4 mps 736 mmHg 56%
    06:00 +8°C° 0 mm 4 mps 736 mmHg 54%
    07:00 +9°C° 0 mm 5 mps 736 mmHg 52%
    08:00 +9°C° 0 mm 5 mps 737 mmHg 50%
    09:00 +11°C° 0 mm 6 mps 736 mmHg 44%
    10:00 +14°C° 0 mm 6 mps 736 mmHg 39%
    11:00 +16°C° 0 mm 6 mps 736 mmHg 33%
    12:00 +17°C° 0 mm 6 mps 736 mmHg 30%
    13:00 +20°C° 0 mm 6 mps 735 mmHg 27%
    14:00 +21°C° 0 mm 5 mps 734 mmHg 24%
    15:00 +20°C° 0 mm 5 mps 734 mmHg 25%
    16:00 +20°C° 0 mm 4 mps 734 mmHg 27%
    17:00 +20°C° 0 mm 3 mps 734 mmHg 29%
    18:00 +19°C° 0 mm 4 mps 734 mmHg 31%
    19:00 +17°C° 0 mm 4 mps 734 mmHg 32%
    20:00 +15°C° 0 mm 4 mps 734 mmHg 34%
    21:00 +15°C° 0 mm 5 mps 734 mmHg 35%
    22:00 +14°C° 0 mm 5 mps 734 mmHg 35%
    23:00 +14°C° 0 mm 5 mps 734 mmHg 36%

    28 August, Wednesday

    Time Temperature Precipitation Wind Pressure Humidity
    00:00 +13°C° 0 mm 5 mps 734 mmHg 36%
    01:00 +13°C° 0 mm 5 mps 734 mmHg 37%
    02:00 +12°C° 0 mm 4 mps 733 mmHg 38%
    03:00 +12°C° 0 mm 4 mps 733 mmHg 38%
    04:00 +12°C° 0 mm 5 mps 733 mmHg 38%
    05:00 +10°C° 0 mm 5 mps 733 mmHg 39%
    06:00 +12°C° 0 mm 5 mps 733 mmHg 37%
    07:00 +13°C° 0 mm 6 mps 733 mmHg 35%
    08:00 +14°C° 0 mm 7 mps 734 mmHg 34%
    09:00 +17°C° 0 mm 7 mps 733 mmHg 31%
    10:00 +20°C° 0 mm 8 mps 733 mmHg 29%
    11:00 +23°C° 0 mm 8 mps 733 mmHg 26%
    12:00 +24°C° 0 mm 8 mps 732 mmHg 24%
    13:00 +27°C° 0 mm 7 mps 731 mmHg 23%
    14:00 +28°C° 0 mm 7 mps 731 mmHg 21%
    15:00 +28°C° 0 mm 5 mps 730 mmHg 23%
    16:00 +27°C° 0 mm 4 mps 730 mmHg 24%
    17:00 +26°C° 0 mm 2 mps 730 mmHg 26%
    18:00 +25°C° 0 mm 3 mps 730 mmHg 26%
    19:00 +24°C° 0 mm 3 mps 730 mmHg 26%
    20:00 +22°C° 0 mm 4 mps 730 mmHg 27%
    21:00 +21°C° 0 mm 4 mps 730 mmHg 27%
    22:00 +20°C° 0 mm 3 mps 730 mmHg 28%
    23:00 +20°C° 0 mm 3 mps 729 mmHg 29%

    29 August, Thursday

    Time Temperature Precipitation Wind Pressure Humidity
    00:00 +19°C° 0 mm 4 mps 729 mmHg 30%
    01:00 +19°C° 0 mm 4 mps 729 mmHg 31%
    02:00 +18°C° 0 mm 4 mps 729 mmHg 32%
    03:00 +18°C° 0 mm 4 mps 728 mmHg 33%
    04:00 +18°C° 0 mm 4 mps 728 mmHg 34%
    05:00 +17°C° 0 mm 4 mps 728 mmHg 35%
    06:00 +18°C° 0 mm 4 mps 729 mmHg 34%
    07:00 +19°C° 0 mm 5 mps 729 mmHg 33%
    08:00 +20°C° 0 mm 5 mps 729 mmHg 33%
    09:00 +23°C° 0 mm 7 mps 729 mmHg 30%
    10:00 +26°C° 0 mm 9 mps 729 mmHg 27%
    11:00 +29°C° 0 mm 11 mps 729 mmHg 24%
    12:00 +29°C° 0 mm 12 mps 728 mmHg 24%
    13:00 +29°C° 0 mm 12 mps 727 mmHg 24%
    14:00 +29°C° 0 mm 13 mps 727 mmHg 24%
    15:00 +28°C° 0 mm 11 mps 727 mmHg 28%
    16:00 +27°C° 0 mm 9 mps 727 mmHg 31%
    17:00 +26°C° 0 mm 7 mps 726 mmHg 35%
    18:00 +24°C° 0 mm 7 mps 727 mmHg 39%
    19:00 +23°C° 0 mm 7 mps 727 mmHg 43%
    20:00 +22°C° 0 mm 7 mps 727 mmHg 48%
    21:00 +21°C° 0 mm 6 mps 726 mmHg 52%
    22:00 +21°C° 0 mm 5 mps 726 mmHg 56%
    23:00 +20°C° 0 mm 5 mps 726 mmHg 60%

    30 August, Friday

    Time Temperature Precipitation Wind Pressure Humidity
    00:00 +19°C° 0 mm 6 mps 725 mmHg 62%
    01:00 +18°C° 0 mm 7 mps 725 mmHg 65%
    02:00 +18°C° 0 mm 8 mps 725 mmHg 68%
    03:00 +17°C° 0 mm 8 mps 724 mmHg 70%
    04:00 +17°C° 0 mm 9 mps 724 mmHg 72%
    05:00 +17°C° 0 mm 9 mps 724 mmHg 75%
    06:00 +17°C° 0 mm 10 mps 725 mmHg 72%
    07:00 +17°C° 0 mm 12 mps 725 mmHg 69%
    08:00 +17°C° 0 mm 13 mps 726 mmHg 66%
    09:00 +16°C° 0.5 mm 11 mps 726 mmHg 70%
    10:00 +14°C° 0.5 mm 10 mps 726 mmHg 75%
    11:00 +13°C° 0.5 mm 8 mps 726 mmHg 80%
    12:00 +13°C° 0.5 mm 8 mps 726 mmHg 77%
    13:00 +13°C° 0.5 mm 8 mps 726 mmHg 74%
    14:00 +13°C° 0.5 mm 8 mps 726 mmHg 72%
    15:00 +15°C° 0 mm 8 mps 726 mmHg 65%
    16:00 +16°C° 0 mm 8 mps 727 mmHg 59%
    17:00 +16°C° 0 mm 7 mps 727 mmHg 52%
    18:00 +15°C° 0 mm 7 mps 727 mmHg 55%
    19:00 +14°C° 0 mm 6 mps 728 mmHg 58%
    20:00 +13°C° 0 mm 5 mps 728 mmHg 61%
    21:00 +13°C° 0 mm 5 mps 728 mmHg 63%
    22:00 +12°C° 0 mm 4 mps 728 mmHg 64%
    23:00 +12°C° 0 mm 4 mps 728 mmHg 65%
    Show more